Flag for Mali Weather past 2 weeks in Koutiala, Mali

Now
93 °F

Passing clouds.


Feels Like: 89 °F
Forecast: 75 / 98 °F
Wind: 9 mph from Northeast

Location: Bamako / Senou

Current Time: Mar 27, 2015 at 12:00:51 PM

Latest Report: Mar 27, 2015 at 11:30 AM


Visibility: N/A

Pressure: 30.04 "Hg

Humidity: 7%

Dew point: 19 °F

Location of KoutialaLocation

Historic Weather in Koutiala — Graph

°F

Koutiala temperature yesterday

Maximum temperature yesterday: 97 °F (at 3:00 PM)
Minimum temperature yesterday: 73 °F (at 7:00 AM)
Average temperature yesterday: 86 °F

Past Weeks' High & Low Weather Summary

 TemperatureHumidityPressure
High102 °F (Mar 15, 4:00 PM)50% (Mar 21, 5:30 AM)30.07 "Hg (Mar 21, 5:30 AM)
Low70 °F (Mar 14, 7:00 AM)3% (Mar 13, 12:00 PM)29.74 "Hg (Mar 13, 4:00 PM)
Average88 °F18%29.87 "Hg
* Reported Mar 12 11:00 AM — Mar 27 11:00 AM, Koutiala, Weather by CustomWeather, © 2015

Note: Actual official high and low records may vary slightly from our data, if they occured in-between our weather recording intervals... More about our weather records

Advertising

Koutiala weather history for previous 24 hours

 ConditionsComfort  
Time TempWeatherWind HumidityBarometerVisibility
11:00 AM
Fri, Mar 27
91 °FPassing clouds.12 mph7%30.07 "HgN/A
10:30 AM90 °FPassing clouds.8 mph9%30.07 "HgN/A
10:00 AM86 °FSunny.12 mph9%30.07 "Hg10 mi
9:30 AM86 °FSunny.13 mph10%30.07 "Hg10 mi
9:00 AM84 °FSunny.16 mph10%30.07 "Hg10 mi
8:30 AM82 °FSunny.15 mph10%30.04 "Hg10 mi
8:00 AM81 °FSunny.10 mph11%30.04 "Hg10 mi
7:30 AM79 °FSunny.13 mph12%30.04 "Hg10 mi
7:00 AM79 °FSunny.10 mph12%30.01 "Hg10 mi
6:30 AM77 °FClear.8 mph13%30.01 "Hg10 mi
6:00 AM79 °FClear.9 mph15%30.01 "Hg10 mi
5:30 AM79 °FClear.3 mph15%29.98 "Hg10 mi
5:00 AM79 °FClear.9 mph16%29.98 "Hg10 mi
4:30 AM81 °FClear.7 mph15%29.98 "Hg10 mi
4:00 AM81 °FPassing clouds.6 mph16%29.98 "HgN/A
3:00 AM82 °FClear.12 mph21%29.95 "Hg10 mi
2:30 AM81 °FPassing clouds.7 mph17%29.98 "HgN/A
2:00 AM81 °FClear.7 mph18%29.98 "Hg10 mi
1:30 AM82 °FClear.8 mph17%29.98 "Hg10 mi
1:00 AM84 °FPassing clouds.10 mph15%29.98 "HgN/A
12:30 AM84 °FPassing clouds.9 mph15%30.01 "HgN/A
12:00 AM82 °FClear.10 mph17%30.01 "Hg10 mi
11:30 PM
Thu, Mar 26
82 °FClear.9 mph17%30.01 "Hg10 mi
11:00 PM84 °FClear.7 mph16%30.01 "Hg10 mi
10:30 PM86 °FClear.7 mph15%29.98 "Hg10 mi
10:00 PM84 °FClear.8 mph16%29.98 "Hg10 mi
9:30 PM82 °FClear.9 mph20%29.98 "Hg10 mi
9:00 PM84 °FClear.9 mph18%29.98 "Hg10 mi
8:30 PM84 °FClear.9 mph18%29.95 "Hg10 mi
8:00 PM86 °FClear.9 mph15%29.95 "Hg10 mi
7:30 PM88 °FClear.7 mph15%29.92 "Hg10 mi
7:00 PM90 °FClear.7 mph14%29.92 "Hg10 mi
6:30 PM93 °FSunny.7 mph12%29.89 "Hg10 mi
6:00 PM95 °FSunny.6 mph11%29.89 "Hg10 mi
5:30 PM95 °FPassing clouds.7 mph11%29.86 "HgN/A
5:00 PM97 °FPassing clouds.5 mph11%29.86 "HgN/A
4:30 PM97 °FPassing clouds.6 mph10%29.89 "HgN/A
4:00 PM97 °FSunny.5 mph10%29.89 "Hg10 mi
3:30 PM97 °FPassing clouds.7 mph10%29.92 "HgN/A
3:00 PM97 °FPassing clouds.7 mph10%29.92 "HgN/A
2:30 PM95 °FPassing clouds.7 mph10%29.92 "HgN/A
2:00 PM95 °FPassing clouds.6 mph10%29.95 "HgN/A
1:30 PM93 °FPassing clouds.8 mph11%29.95 "HgN/A
1:00 PM93 °FPassing clouds.9 mph11%29.98 "HgN/A
12:30 PM93 °FPassing clouds.8 mph11%29.98 "HgN/A
12:00 PM90 °FPassing clouds.8 mph12%30.01 "HgN/A
Weather by CustomWeather, © 2015

See weather overviewHow to use our weather pages